Location: Williams Chapel
(35.3368°N, 89.8362°W)
Time: 01:55:12
(UTC+00:00)

ARIANE 6 FM1 Upper Stage - Visible Passes

Search period start: 16 October 2024 00:00
Search period end: 26 October 2024 00:00
Orbit: 563 x 595 km, 62.0° (Epoch: 15 October)

Date Brightness Start Highest point End Pass type
(mag) Time Alt. Az. Time Alt. Az. Time Alt. Az.
18 Oct 5.1 01:10:16 10° N 01:11:04 13° N 01:11:04 13° N visible
19 Oct 4.8 01:14:00 10° N 01:15:30 18° N 01:15:30 18° N visible
20 Oct 4.4 01:17:55 10° NNW 01:20:01 25° N 01:20:01 25° N visible
21 Oct 3.9 01:22:01 10° NNW 01:24:41 36° NNW 01:24:41 36° NNW visible
21 Oct 4.6 23:48:25 10° N 23:50:53 15° NE 23:53:11 10° ENE visible
22 Oct 3.7 01:26:15 10° NW 01:29:31 47° WNW 01:29:31 47° WNW visible
22 Oct 4.1 23:51:53 10° N 23:55:18 22° NE 23:58:14 12° E visible
23 Oct 4.1 01:30:41 10° NW 01:34:35 36° WSW 01:34:35 36° WSW visible
23 Oct 3.5 23:55:40 10° NNW 23:59:39 34° NE 00:03:35 10° ESE visible
24 Oct 5.0 01:35:24 10° WNW 01:38:45 22° WSW 01:39:57 19° SW visible
24 Oct 2.9 23:59:37 10° NNW 00:03:54 55° NE 00:08:10 10° SE visible
25 Oct 5.7 01:40:47 10° W 01:42:44 13° WSW 01:44:41 10° SW visible
